This demonstration page uses our WeatherBlox Daily Observations layout. Learn more.

Left ArrowRight Arrow

39.29038, -76.61219

Hourly Observations for November 23, 2020

Temp ( °F °C ) Dew Point ( °F °C ) Humidity (%) Winds ( mph kmh ) Pressure ( in mb ) Visibility ( mi km ) Precip ( " mm )
12:54 am 00:54 Cloudy 59 15 54 12.2 83 83 SSW 7 11 29.98 1015 10 16 0.00 0.00
1:54 am 01:54 Cloudy with Light Rain 59 15 55 12.8 87 87 SW 5 7 29.96 1014 7 11 0.00 0.00
2:54 am 02:54 Cloudy 59 15 56 13.3 90 90 SW 6 9 29.94 1014 10 16 0.00 0.00
3:01 am 03:01 Cloudy 59 15 56 13.3 90 90 SW 5 7 29.94 1014 10 16 0.00 0.00
3:54 am 03:54 Cloudy 59 15 56 13.3 90 90 WSW 6 9 29.92 1013 10 16 0.00 0.00
4:17 am 04:17 Cloudy 59 15 56 13.3 90 90 W 12 19 29.93 1014 10 16 0.00 0.00
4:41 am 04:41 Cloudy with Light Rain 58 14.4 51 10.6 78 78 W 21 33 29.93 1014 10 16 0.00 0.00
4:54 am 04:54 Mostly Cloudy 57 13.9 51 10.6 81 81 W 12 19 29.92 1013 10 16 0.01 0.25
5:54 am 05:54 Cloudy 57 13.9 50 10 78 78 WNW 13 20 29.94 1014 10 16 0.00 0.00
6:54 am 06:54 Cloudy 55 12.8 46 7.8 72 72 WNW 16 26 29.96 1015 10 16 0.00 0.00
7:49 am 07:49 Mostly Cloudy 52 11 39 4 62 62 WNW 20 31 30.00 1016 10 16 0.00 0.00
7:54 am 07:54 Mostly Cloudy 51 10.6 39 3.9 64 64 WNW 23 37 30.01 1016 10 16 0.00 0.00
8:54 am 08:54 Mostly Cloudy 51 10.6 38 3.3 61 61 WNW 15 24 30.04 1017 10 16 0.00 0.00
9:54 am 09:54 Partly Cloudy 51 10.6 33 0.6 50 50 WNW 18 30 30.09 1019 10 16 0.00 0.00
10:54 am 10:54 Mostly Sunny 50 10 30 -1.1 46 46 NW 16 26 30.11 1020 10 16 0.00 0.00
11:54 am 11:54 Mostly Sunny 52 11.1 30 -1.1 43 43 WNW 25 41 30.09 1019 10 16 0.00 0.00
12:54 pm 12:54 Mostly Sunny 52 11.1 29 -1.7 41 41 WNW 22 35 30.07 1018 10 16 0.00 0.00
1:54 pm 13:54 Mostly Sunny 53 11.7 28 -2.2 38 38 NW 18 30 30.07 1018 10 16 0.00 0.00
2:54 pm 14:54 Mostly Sunny 51 10.6 27 -2.8 39 39 WNW 20 31 30.10 1019 10 16 0.00 0.00
3:54 pm 15:54 Mostly Sunny 50 10 27 -2.8 41 41 NW 21 33 30.13 1020 10 16 0.00 0.00
4:54 pm 16:54 Mostly Clear 47 8.3 28 -2.2 48 48 NW 16 26 30.17 1022 10 16 0.00 0.00
5:54 pm 17:54 Mostly Clear 46 7.8 28 -2.2 50 50 WNW 12 19 30.21 1023 10 16 0.00 0.00
6:54 pm 18:54 Mostly Clear 44 6.7 28 -2.2 53 53 WNW 8 13 30.23 1024 10 16 0.00 0.00
7:54 pm 19:54 Mostly Cloudy 44 6.7 30 -1.1 58 58 W 6 9 30.23 1024 10 16 0.00 0.00
8:54 pm 20:54 Mostly Cloudy 45 7.2 29 -1.7 54 54 WNW 8 13 30.24 1024 10 16 0.00 0.00
9:54 pm 21:54 Mostly Clear 40 4.4 28 -2.2 63 63 W 7 11 30.24 1024 10 16 0.00 0.00
10:54 pm 22:54 Mostly Cloudy 44 6.7 29 -1.7 55 55 W 6 9 30.26 1025 10 16 0.00 0.00
11:54 pm 23:54 Mostly Cloudy 44 6.7 28 -2.2 53 53 WNW 10 17 30.27 1025 10 16 0.00 0.00

Powered by AerisWeather